Showing default

BEIDOU 3M2, 43002

Orbit data source: Space-Track

BEIDOU 3M2, 43002 is a payload satellite owned by CNSA (CN) in MEO that was launched on Sun, 05 Nov 2017 UTC via a CHANG ZHENG 3B/YZ-1 launch vehicle from the Xichang Space Center, China (XSC). Payload-class satellites include a variety of spacecraft equipped with specific instruments for various scientific and technological missions. These include communications satellites like Starlink; space stations such as the ISS; scientific satellites like the Hubble; Earth observation satellites from companies like Planet Labs, Umbra, and HawkEye 360; GPS; miniature CubeSats for education and research; and military/defense satellites.

Loading next visibility...
Identifier
43002, 2017-069B
Orbit
MEO
Country
Flag of CNCN / PRC
Related business
Manufacturer
CAST
Mission
Operational Defense Navigation
Bus & Motor
BD-3M, Unknown motor
Mass
1,014 kg wet, ~850 kg dry
Launch date (UTC)
2017-11-05 (9 years ago)
Launch vehicle
CHANG ZHENG 3B/YZ-1
Launch site
Xichang Space Center, China (XSC)
Object type
Payload
Rocket body
Debris
Shape & HBR
Box + 2 Pan, 5.0 m
Radar Cross Section
8.984 m², Large (>1 m²)

Expand to show TLE details & history
Last TLE update: 3 days ago

TLE from 3 days ago
0 BEIDOU 3M2
1 43002U 17069B   26170.75658747 -.00000066  00000-0  00000-0 0  9990
2 43002  56.6931  63.0362 0009110 351.9115   8.1147  1.86230559 58640
Epoch: 2026-06-19T18:09Z
TLE epoch observation values (Epoch: 2026-06-19T18:09:29.157Z)
Latitude
0.00006°
Longitude
-117.29959°
Altitude
21,503.245 km
Speed
3.783 km/s
True Right ascension
04h 12m 12s
True Declination
0° 00' 00"
Sunlit
Object was in daylight at epoch
Visualization orbit readout
Latitude
Unknown
Longitude
Unknown
Altitude
Unknown
Speed
Unknown
Apparent Right ascension
Unknown
Apparent Declination
Unknown
Sunlit
N/A
Visualization observer readout
Local Sidereal Time
21:26:15
Azimuth
Unknown
Elevation
Unknown
Doppler factor
Unknown
Orbital elements
Apogee altitude
21,553.46 km
Perigee altitude
21,502.615 km
Semi-major axis
27,906.174 km
Eccentricity
0.00091
Inclination
56.6931°
RAAN
63.0362°
Arg. of periapsis
351.9115°
True anomaly
8.12945°
Mean anomaly
8.1147°
Eccentric anomaly
8.12207°
Mean motion
0.46558 °/min
Orbital period
773.23 mins
BSTAR
0
Loading maneuver chart data...
Computing Atmospheric mass density...
Loading historical data...
Loading historical data...
Loading historical data...
Loading historical data...
Loading historical data...
Loading historical data...
Loading historical data...
Other satellites on launch #69 in the year 2017 (2017-11-05 UTC)

Documentation

Showing up to 5 results
|